Home   Weather   Washington Park   Past weeks
Flag for USA

Past Weather in Washington Park, Alabama, USA — Yesterday and Last 2 Weeks

Now
79 °F

Clear.


Feels Like: 81 °F
Forecast: 93 / 70 °F
Wind: No wind

Location: Maxwell Air Force Base / Montgomery

Current Time: May 23, 2019 at 10:12:17 pm

Latest Report: May 23, 2019 at 8:56 pm


Visibility: 10 mi

Pressure: 30.11 "Hg

Humidity: 75%

Dew Point: 70 °F

Location of Washington ParkLocation

Past Weather in Washington Park — Graph

°F

Washington Park Temperature Yesterday

Maximum temperature yesterday: 91 °F (at 3:56 pm)
Minimum temperature yesterday: 63 °F (at 5:56 am)
Average temperature yesterday: 76 °F

High & Low Weather Summary for the Past Weeks

 TemperatureHumidityPressure
High92 °F (May 23, 4:56 pm)100% (May 9, 4:27 pm)30.22 "Hg (May 9, 4:27 pm)
Low54 °F (May 14, 4:56 am)33% (May 14, 4:56 pm)29.74 "Hg (May 12, 4:57 pm)
Average74 °F76%29.97 "Hg
* Reported May 8 8:56 pm — May 23 8:56 pm, Washington Park. Weather by CustomWeather, © 2019

Note: Actual official high and low records may vary slightly from our data, if they occured in-between our weather recording intervals... More about our weather records

Advertising

Washington Park Weather History for the Previous 24 Hours

Scroll right to see more
 ConditionsComfort  
Time TempWeatherWind HumidityBarometerVisibility
8:56 pm
Thu, May 23
79 °FClear.No wind75%30.11 "Hg10 mi
7:56 pm85 °FClear.No wind60%30.11 "Hg10 mi
6:56 pm89 °FPassing clouds.5 mph49%30.10 "Hg10 mi
5:56 pm92 °FPassing clouds.6 mph45%30.11 "Hg10 mi
4:56 pm92 °FSunny.7 mph40%30.12 "Hg10 mi
3:56 pm91 °FSunny.5 mph45%30.14 "Hg10 mi
2:56 pm90 °FBroken clouds.6 mph48%30.15 "Hg10 mi
1:56 pm92 °FSunny.6 mph47%30.17 "Hg10 mi
12:56 pm90 °FPassing clouds.5 mph46%30.19 "Hg10 mi
11:56 am89 °FPassing clouds.3 mph53%30.21 "Hg10 mi
10:56 am86 °FSunny.No wind57%30.22 "Hg10 mi
9:56 am84 °FSunny.3 mph61%30.22 "Hg10 mi
8:56 am78 °FSunny.No wind73%30.22 "Hg10 mi
7:56 am76 °FSunny.No wind76%30.21 "Hg10 mi
6:56 am72 °FOvercast.3 mph86%30.18 "Hg10 mi
5:56 am70 °FScattered clouds.3 mph92%30.15 "Hg10 mi
4:56 am71 °FPassing clouds.No wind89%30.13 "Hg10 mi
3:56 am70 °FClear.No wind94%30.11 "Hg10 mi
2:56 am69 °FClear.3 mph95%30.09 "Hg10 mi
12:56 am70 °FClear.No wind94%30.09 "Hg10 mi
11:56 pm
Wed, May 22
72 °FClear.No wind90%30.10 "Hg10 mi
10:56 pm75 °FClear.No wind83%30.10 "Hg10 mi
Weather by CustomWeather, © 2019

See weather overview